Location: Boston Heights
(34.0597°N, 118.1954°W)
Time: 19:11:39
(UTC+00:00)

Daily predictions for brighter satellites

Satellite Brightness Start Highest point End
(mag) Time Altitude Azimuth Time Altitude Azimuth Time Altitude Azimuth
ATLAS 5 CENTAUR R/B 2.3 12:05:18 44° ENE 12:05:18 44° ENE 12:08:20 10° NE
CZ-2C R/B 4.0 12:05:43 10° N 12:07:32 22° N 12:07:32 22° N
NOSS 3-4 (A) 3.3 12:09:11 52° SSW 12:10:39 80° ESE 12:16:43 10° NNE
NOSS 3-4 (C) 3.3 12:09:15 51° SSW 12:10:45 79° ESE 12:16:49 10° NNE
Milstar 3 Cent rocket 2.5 12:11:55 45° S 12:11:55 45° S 12:16:15 10° ESE
Meteor 1-31 Rocket 4.4 12:17:04 10° NNE 12:20:36 34° E 12:24:05 10° SSE
Cosmos 2322 4.2 12:17:48 10° NNW 12:23:26 60° ENE 12:28:59 10° SSE
CZ-4C R/B 1.7 12:23:22 65° W 12:23:41 67° WNW 12:29:05 10° NNE
FENGYUN 3A 3.5 12:18:17 10° N 12:23:42 73° WNW 12:25:55 37° SSW
ADEOS 4.3 12:20:16 10° NNE 12:25:23 53° E 12:30:28 10° S
ATLAS 2AS CENTAUR R/B 3.3 12:18:18 12° SSW 12:25:31 70° ESE 12:33:21 10° NE
Cosmos 1805 Rocket 3.5 12:21:11 10° N 12:25:40 89° WSW 12:30:05 10° S
Delta 2 Rocket 3.6 12:26:45 61° NW 12:27:29 74° N 12:32:38 10° E
Landsat 5 3.1 12:23:55 10° SSE 12:27:43 89° ENE 12:31:36 10° NNW
Meteor 2-17 Rocket 4.3 12:24:15 10° N 12:30:18 80° W 12:36:21 10° S
SJ-6F 4.4 12:31:51 10° N 12:35:58 61° WNW 12:36:23 57° WSW
Cosmos 1437 Rocket 3.4 12:32:53 10° S 12:36:54 59° E 12:40:53 10° NNE
Cosmos 2344 4.5 12:36:35 25° WNW 12:38:08 27° NW 12:44:31 10° NNE
Cosmos 1484 Rocket 3.2 12:39:03 10° N 12:41:55 40° NW 12:41:55 40° NW
Meteor 1-20 Rocket 4.5 12:37:51 10° N 12:43:36 75° E 12:49:24 10° SSE
Sich 1 2.9 12:39:37 10° N 12:44:00 73° W 12:48:20 10° S
Cosmos 1782 3.1 12:40:50 10° S 12:44:42 64° E 12:48:38 10° NNE
GPS 2-04 Rocket1 2.6 12:45:07 51° WNW 12:45:51 66° N 12:49:38 10° E
Cosmos 2360 Rocket 2.7 12:46:08 26° WNW 12:48:16 35° WSW 12:53:20 10° SSW
Cosmos 1666 Rocket 3.7 12:44:57 10° N 12:49:20 73° E 12:53:44 10° SSE
CZ-3 R/B 3.3 12:36:22 19° WSW 12:52:17 55° S 12:58:57 10° E
Sakura Rocket 3.7 12:52:23 29° SW 12:53:31 34° S 12:56:57 10° SE
Cosmos 2333 4.2 12:48:44 10° NNW 12:54:27 62° WSW 13:00:07 10° S
Cosmos 2237 Rocket 4.4 12:50:24 10° N 12:55:02 25° ENE 12:59:39 10° ESE
USA 238 DEB 3.9 12:53:09 10° NW 13:00:30 72° WSW 13:08:05 10° SSE
USA 238 3.9 12:53:15 10° NW 13:00:37 73° WSW 13:08:12 10° SSE
Cosmos 1954 Rocket 4.3 12:56:27 10° S 13:01:42 71° ESE 13:06:56 10° NNE
H-2A R/B 2.0 12:59:55 10° S 13:04:06 57° WSW 13:08:14 10° NNW
CZ-4B R/B 2.4 13:03:30 10° SSE 13:06:29 44° ENE 13:09:26 10° N
Cosmos 2227 Rocket 3.1 13:02:07 10° S 13:07:35 52° ESE 13:13:04 10° NNE
Cosmos 1151 Rocket 3.1 13:03:38 10° SSW 13:07:50 50° W 13:12:01 10° N
Cosmos 407 Rocket 3.8 13:03:39 13° SW 13:07:54 42° WNW 13:12:47 10° N
CZ-4B R/B 3.9 13:06:56 10° N 13:10:25 43° WNW 13:13:53 10° SSW
SKYMED 2 3.6 13:10:03 10° SSE 13:14:23 84° ENE 13:18:44 10° N
Cosmos 2333 Rocket 2.4 13:09:31 10° NNW 13:15:05 51° WSW 13:20:38 10° S
Cosmos 1190 Rocket 4.3 13:13:49 10° SW 13:18:53 45° WNW 13:23:58 10° N
ALOS 3.7 13:15:50 10° NNW 13:18:58 18° WNW 13:20:25 16° W
Cosmos 2074 Rocket 3.9 13:13:36 10° N 13:19:46 72° W 13:25:55 10° S
Skynet4D Del rocket 4.4 13:15:46 15° WSW 13:19:49 39° S 13:24:45 10° ESE
Cosmos 1633 Rocket 3.1 13:16:44 10° NNW 13:21:02 56° W 13:25:17 10° S
Centaur D AC-25 3.6 13:12:01 15° W 13:21:19 49° S 13:25:11 10° ESE
SWAS 4.5 13:17:24 10° NNW 13:21:40 59° WSW 13:25:53 10° S
Cosmos 1602 3.8 13:18:59 10° NNW 13:22:49 56° W 13:26:37 10° S
Cosmos 2297 Rocket 2.2 13:17:13 10° SSW 13:22:51 87° WNW 13:28:31 10° NNE
OAO 3 Rocket 3.2 13:20:01 16° W 13:23:58 84° N 13:28:47 10° E
YAOGAN 6 2.9 13:21:48 10° NNE 13:25:16 65° E 13:28:42 10° S
Cosmos 676 Rocket 4.0 13:20:36 10° SSW 13:25:53 68° WNW 13:31:10 10° NNE
Cosmos 2154 Rocket 4.2 13:20:08 10° N 13:26:24 82° E 13:32:41 10° S
Cosmos 2219 Rocket 2.6 13:27:00 10° NW 13:32:18 42° WSW 13:37:35 10° S
Lacrosse 5 2.1 13:27:39 10° NW 13:32:33 52° SW 13:37:26 10° SSE
Lacrosse 4 Rocket 3.4 13:37:24 10° W 13:38:22 11° WSW 13:39:21 10° WSW
Cosmos 1980 4.2 13:34:20 10° NNW 13:39:59 67° ENE 13:45:36 10° SSE
CENTAUR R/B 3.5 13:34:32 10° NW 13:42:42 50° WSW 13:51:09 10° S
Envisat 3.0 13:38:28 10° N 13:43:33 76° WNW 13:48:35 10° SSW
USA 234 4.4 13:39:55 10° S 13:44:44 22° WSW 13:49:33 10° WNW
Cosmos 482 Debris 4.3 13:42:40 10° SW 13:45:37 75° SE 13:50:28 10° NE
Cosmos 2184 Rocket 4.3 13:39:55 10° NNW 13:45:53 44° W 13:51:52 10° SSW
Cosmos 1812 2.9 13:42:24 10° SSW 13:46:07 49° W 13:49:51 10° N
COSMOS 2428 3.2 13:40:56 10° NW 13:46:09 38° WSW 13:51:23 10° S
H-2A R/B 3.2 13:42:31 10° N 13:46:10 40° WNW 13:49:47 10° SW
RESURS DK-1 2.6 13:42:38 10° SW 13:46:37 49° WNW 13:50:39 10° N
CZ-2C R/B 2.8 13:43:31 10° SW 13:47:31 35° SSE 13:51:33 10° E
ATLAS 5 CENTAUR R/B 3.5 13:48:20 10° WNW 13:49:25 11° NW 13:50:32 10° NNW
Cosmos 1515 Rocket 4.1 13:45:31 10° SSW 13:49:31 37° W 13:53:34 10° NNW
NOAA 6 4.4 13:46:18 10° NNE 13:51:26 72° ESE 13:56:32 10° S
NOSS 0 Rocket 4.0 13:45:56 10° NNW 13:52:03 69° WSW 13:58:12 10° S
Cosmos 1818 4.4 13:46:54 10° SSW 13:52:10 56° ESE 13:57:29 10° NE
Meteor 2-12 Rocket 4.5 13:46:44 10° NNW 13:52:50 69° W 13:58:57 10° S
H-2A R/B 2.5 13:51:33 10° W 14:03:51 60° SSW 14:07:02 10° ESE
